Flag for Germany Weather past 2 weeks in Ansbach, Bavaria, Germany

Now
40 °F

Passing clouds.


Feels Like: 40 °F
Forecast: 47 / 56 °F
Wind: 1 mph from Southeast

Location: Ansbach / Katterbach

Current Time: Sep 24, 2014 at 7:16:01 AM

Latest Report: Sep 24, 2014 at 6:58 AM


Visibility: N/A

Pressure: 30.01 "Hg

Humidity: 93%

Dew point: 38 °F

Location of AnsbachLocation

Historic Weather in Ansbach — Graph

°F

Ansbach temperature yesterday

Maximum temperature yesterday: 57 °F (at 4:58 PM)
Minimum temperature yesterday: 43 °F (at 1:58 AM)
Average temperature yesterday: 49 °F

Past Weeks' High & Low Weather Summary

 TemperatureHumidityPressure
High73 °F (Sep 19, 3:58 PM)100% (Sep 11, 8:58 PM)30.26 "Hg (Sep 11, 8:58 PM)
Low39 °F (Sep 24, 3:58 AM)54% (Sep 9, 12:58 PM)29.91 "Hg (Sep 18, 1:58 PM)
Average57 °F89%30.05 "Hg
* Reported Sep 9 5:58 AM — Sep 24 5:58 AM, Ansbach, Weather by CustomWeather, © 2014

Note: Actual official high and low records may vary slightly from our data, if they occured in-between our weather recording intervals... More about our weather records

Advertising

Ansbach weather history for previous 24 hours

 ConditionsComfort  
Time TempWeatherWind HumidityBarometerVisibility
5:58 AM
Sep 24
41 °FOvercast.No wind93%30.02 "HgN/A
4:58 AM39 °FOvercast.2 mph96%30.03 "HgN/A
3:58 AM39 °FClear.2 mph100%30.04 "HgN/A
2:58 AM41 °FClear.5 mph95%30.06 "HgN/A
1:58 AM41 °FClear.3 mph93%30.14 "HgN/A
12:58 AM43 °FClear.3 mph87%30.14 "HgN/A
11:58 PM
Sep 23
45 °FClear.3 mph81%30.15 "HgN/A
10:58 PM45 °FClear.6 mph81%30.17 "HgN/A
9:58 PM48 °FClear.6 mph76%30.16 "HgN/A
8:58 PM48 °FClear.6 mph76%30.17 "HgN/A
7:58 PM50 °FSunny.6 mph73%30.15 "HgN/A
6:58 PM54 °FSunny.5 mph58%30.15 "HgN/A
5:58 PM55 °FSunny.5 mph57%30.15 "HgN/A
4:58 PM57 °FScattered clouds.No wind55%30.17 "HgN/A
3:58 PM56 °FScattered clouds.3 mph56%30.19 "HgN/A
2:58 PM55 °FScattered clouds.3 mph57%30.21 "HgN/A
1:58 PM53 °FOvercast.3 mph62%30.24 "HgN/A
12:58 PM52 °FOvercast.No wind62%30.24 "HgN/A
11:58 AM52 °FOvercast.5 mph71%30.24 "HgN/A
10:58 AM49 °FOvercast.6 mph80%30.26 "HgN/A
9:58 AM47 °FOvercast.8 mph88%30.25 "HgN/A
8:58 AM45 °FOvercast.8 mph93%30.25 "HgN/A
7:58 AM44 °FOvercast.8 mph94%30.23 "HgN/A
Weather by CustomWeather, © 2014

See weather overviewHow to use our weather pages